This demonstration page uses our WeatherBlox Daily Observations layout. Learn more.

Left ArrowRight Arrow

Hourly Observations for February 1, 2016

Temp ( °F °C ) Dew Point ( °F °C ) Humidity (%) Winds ( mph kmh ) Pressure ( in mb ) Visibility ( mi km ) Precip ( " mm )
12:14 am 00:14 Cloudy 41 5 37 3 87 87 NW 13 20 29.88 1012 7 11 N/A
12:55 am 00:55 Cloudy 39 4 37 3 93 93 NW 10 17 29.88 1012 7 11 N/A
1:14 am 01:14 Cloudy 39 4 36 2 87 87 NW 7 11 29.91 1013 7 11 N/A
1:34 am 01:34 Cloudy 39 4 36 2 87 87 NW 9 15 29.91 1013 7 11 N/A
1:55 am 01:55 Cloudy 39 4 36 2 87 87 NW 9 15 29.91 1013 7 11 N/A
2:14 am 02:14 Cloudy 39 4 36 2 87 87 NW 6 9 29.91 1013 7 11 N/A
2:34 am 02:34 Cloudy 37 3 36 2 93 93 NW 7 11 29.91 1013 10 16 N/A
2:55 am 02:55 Cloudy 37 3 34 1 87 87 NW 7 11 29.94 1014 7 11 N/A
3:14 am 03:14 Cloudy 37 3 34 1 87 87 NNW 7 11 29.94 1014 7 11 N/A
3:34 am 03:34 Partly Cloudy 36 2 34 1 93 93 WNW 5 7 29.97 1015 7 11 N/A
3:55 am 03:55 Partly Cloudy 34 1 32 undefined 93 93 NNW 7 11 29.97 1015 7 11 N/A
4:14 am 04:14 Partly Cloudy 34 1 32 undefined 93 93 NNW 8 13 29.97 1015 7 11 N/A
4:34 am 04:34 Partly Cloudy 36 2 32 undefined 87 87 NNW 7 11 29.97 1015 7 11 N/A
4:54 am 04:54 Partly Cloudy 34 1 32 undefined 93 93 NNW 6 9 29.97 1015 7 11 N/A
5:14 am 05:14 Clear 34 1 32 undefined 93 93 N N/A 29.97 1015 7 11 N/A
5:35 am 05:35 Partly Cloudy 32 undefined 32 undefined 100 100 N N/A 30.00 1016 5 8 N/A
5:54 am 05:54 Mostly Cloudy 32 undefined 32 undefined 100 100 N N/A 30.00 1016 5 8 N/A
6:14 am 06:14 Cloudy 34 1 32 undefined 93 93 N N/A 30.03 1017 5 8 N/A
6:35 am 06:35 Cloudy 34 1 32 undefined 93 93 NW 3 6 30.03 1017 5 8 N/A
6:54 am 06:54 Cloudy 34 1 32 undefined 93 93 N N/A 30.03 1017 5 8 N/A
7:14 am 07:14 Cloudy 34 1 32 undefined 93 93 NW 5 7 30.03 1017 5 8 N/A
7:35 am 07:35 Cloudy 34 1 32 undefined 93 93 N N/A 30.03 1017 5 8 N/A
7:54 am 07:54 Cloudy 34 1 34 1 100 100 NNW 3 6 30.03 1017 5 8 N/A
8:14 am 08:14 Cloudy 34 1 32 undefined 93 93 N 3 6 30.06 1018 4 6 N/A
8:35 am 08:35 Cloudy 34 1 34 1 100 100 NNE 3 6 30.06 1018 3 5 N/A
8:54 am 08:54 Cloudy 34 1 34 1 100 100 N N/A 30.06 1018 3 5 N/A
9:14 am 09:14 Cloudy 36 2 34 1 93 93 N N/A 30.06 1018 3 4 N/A
9:35 am 09:35 Cloudy 36 2 34 1 93 93 N N/A 30.06 1018 4 6 N/A
9:54 am 09:54 Mostly Cloudy 36 2 34 1 93 93 N N/A 30.06 1018 4 6 N/A
10:14 am 10:14 Mostly Cloudy 37 3 34 1 87 87 N N/A 30.09 1019 5 8 N/A
10:34 am 10:34 Mostly Cloudy 37 3 34 1 87 87 N N/A 30.09 1019 5 8 N/A
10:54 am 10:54 Cloudy 37 3 34 1 87 87 N N/A 30.09 1019 5 8 N/A
11:34 am 11:34 Cloudy 37 3 34 1 87 87 N N/A 30.12 1020 5 8 N/A
11:54 am 11:54 Cloudy 37 3 34 1 87 87 N N/A 30.12 1020 5 8 N/A
12:15 pm 12:15 Mostly Cloudy 39 4 34 1 81 81 N N/A 30.06 1018 7 11 N/A
12:34 pm 12:34 Mostly Cloudy 39 4 34 1 81 81 N N/A 30.09 1019 7 11 N/A
12:54 pm 12:54 Cloudy 39 4 34 1 81 81 N N/A 30.06 1018 7 11 N/A
1:15 pm 13:15 Cloudy 41 5 36 2 81 81 N N/A 30.06 1018 7 11 N/A
1:34 pm 13:34 Cloudy 41 5 34 1 76 76 N 3 6 30.06 1018 7 11 N/A
1:55 pm 13:55 Partly Cloudy 43 6 36 2 76 76 N N/A 30.06 1018 10 16 N/A
2:14 pm 14:14 Partly Cloudy 43 6 36 2 76 76 N N/A 30.06 1018 10 16 N/A
2:35 pm 14:35 Sunny 43 6 36 2 76 76 N 3 6 30.06 1018 10 16 N/A
2:54 pm 14:54 Partly Cloudy 45 7 36 2 71 71 NE 3 6 30.06 1018 10 16 N/A
3:14 pm 15:14 Partly Cloudy 45 7 36 2 71 71 NNE 3 6 30.06 1018 10 16 N/A
3:35 pm 15:35 Sunny 46 8 34 1 62 62 N 3 6 30.06 1018 10 16 N/A
3:54 pm 15:54 Sunny 46 8 34 1 62 62 N 6 9 30.06 1018 10 16 N/A
4:14 pm 16:14 Sunny 46 8 36 2 66 66 N 7 11 30.06 1018 10 16 N/A
4:34 pm 16:34 Sunny 45 7 36 2 71 71 NNE 8 13 30.06 1018 10 16 N/A
4:54 pm 16:54 Sunny 45 7 36 2 71 71 NNE 9 15 30.06 1018 10 16 N/A
5:14 pm 17:14 Sunny 43 6 36 2 76 76 NNE 7 11 30.06 1018 10 16 N/A
5:35 pm 17:35 Sunny 41 5 36 2 81 81 NNE 7 11 30.06 1018 10 16 N/A
5:54 pm 17:54 Sunny 39 4 34 1 81 81 NE 7 11 30.06 1018 7 11 N/A
6:15 pm 18:15 Clear 36 2 32 undefined 87 87 NNE 8 13 30.12 1020 10 16 N/A
6:34 pm 18:34 Cloudy 57 14 50 10 77 77 SW 17 28 29.65 1004 10 16 N/A
6:54 pm 18:54 Clear 32 undefined 32 undefined 100 100 NNE 7 11 30.12 1020 7 11 N/A
7:15 pm 19:15 Clear 32 undefined 30 -1 93 93 N 7 11 30.15 1021 7 11 N/A
7:34 pm 19:34 Clear 32 undefined 30 -1 93 93 N 7 11 30.15 1021 5 8 N/A
7:54 pm 19:54 Clear 32 undefined 30 -1 93 93 N 8 13 30.15 1021 5 8 N/A
8:15 pm 20:15 Clear 32 undefined 30 -1 93 93 NNE 8 13 30.15 1021 5 8 N/A
8:34 pm 20:34 Clear 30 -1 30 -1 100 100 NNE 7 11 30.15 1021 4 6 N/A
8:54 pm 20:54 Clear 30 -1 30 -1 100 100 NNE 6 9 30.15 1021 4 6 N/A
9:15 pm 21:15 Clear 30 -1 30 -1 100 100 NE 6 9 30.15 1021 3 5 N/A
9:34 pm 21:34 Clear 30 -1 28 -2 93 93 NE 7 11 30.15 1021 3 5 N/A
9:54 pm 21:54 Clear 28 -2 28 -2 100 100 NE 6 9 30.15 1021 3 5 N/A
10:15 pm 22:15 Clear 30 -1 28 -2 93 93 NE 5 7 30.15 1021 3 4 N/A
10:34 pm 22:34 Clear 27 -3 27 -3 100 100 ENE 3 6 30.15 1021 3 4 N/A
10:54 pm 22:54 Clear 28 -2 28 -2 100 100 NE 5 7 30.15 1021 3 4 N/A
11:14 pm 23:14 Clear 30 -1 28 -2 93 93 ENE 6 9 30.15 1021 3 4 N/A
11:34 pm 23:34 Clear 30 -1 30 -1 100 100 ENE 5 7 30.15 1021 3 4 N/A
11:55 pm 23:55 Clear 30 -1 30 -1 100 100 E 6 9 30.12 1020 3 4 N/A

Powered by AerisWeather